[[{"header":{"parameterUnit":"m.s-1","parameterCategory":1,"la1":30.2992,"la2":30.254,"lo1":-89.0895,"lo2":-89.0443,"dy":0.0025,"dx":0.0025,"nx":19,"ny":19,"refTime":"2026-03-20T03:00:00:Z","depth":0,"parameterNumber":2,"parameterNumberName":"U-component_of_WINDS"},"data":[0,0,0,1.6903,1.6905,1.7025,1.7025,1.7166,1.7167,0,0,0,0,0,0,0,0,0,0,0,1.6862,1.6863,1.6903,1.6905,1.7025,1.7025,1.7166,1.7167,0,0,0,0,0,0,0,0,0,0,0,1.6861,1.6862,1.6863,1.6906,1.7024,1.7025,1.7166,1.7079,0,0,0,0,0,0,0,0,0,0,1.6965,1.6923,1.6862,1.6863,1.6906,1.7024,1.7025,1.7075,1.7085,1.7107,0,1.7127,0,1.7149,1.7176,1.7176,0,0,0,1.6909,1.6915,1.6952,1.6863,1.6908,1.7024,1.6972,1.7081,1.7091,1.712,1.7129,1.7135,1.7152,1.7177,1.7178,1.7295,1.7295,0,0,1.6903,1.688,1.6945,1.6958,1.6941,1.6968,1.6976,1.7087,1.7096,1.713,1.7138,1.7154,1.7178,1.7179,1.7295,1.7295,0,0,0,1.6881,1.6875,1.691,1.6952,1.6975,1.6971,1.698,1.7091,1.7104,1.714,1.7156,1.7178,1.718,1.7294,1.7295,1.7289,0,0,0,1.6877,1.6863,1.6907,1.6894,1.6973,1.7035,1.6981,1.7096,1.711,1.7155,1.7179,1.7181,1.7294,1.7295,1.7289,1.729,0,0,0,1.6856,1.686,1.6876,1.6893,1.6943,1.7033,1.7053,1.71,1.7119,1.7177,1.7182,1.7294,1.7295,1.7288,1.7289,1.7313,0,0,0,1.6826,1.687,1.6875,1.693,1.6942,1.703,1.7053,1.7119,1.7168,1.7179,1.7294,1.7295,1.7288,1.7289,1.7312,1.7327,1.7332,0,0,1.6869,1.6875,1.6909,1.6917,1.6997,1.7013,1.7093,1.7159,1.7185,1.7257,1.726,1.7289,1.7289,1.7313,1.7369,1.7372,0,0,0,1.6914,1.6938,1.6965,1.701,1.7061,1.7104,1.7161,1.7185,1.7246,1.7218,1.7305,1.7306,1.7321,1.7329,1.7332,1.7345,1.7298,1.7298,1.7298,1.6942,1.6972,1.703,1.7074,1.7117,1.7174,1.7211,1.7253,1.7273,1.7292,1.7313,1.7344,1.7353,1.7355,1.7368,1.7325,1.7325,1.7325,1.7325,1.7006,1.7043,1.7066,1.713,1.7161,1.7215,1.727,1.7282,1.7335,1.7331,1.7345,1.7337,1.7358,1.7371,1.7325,1.7325,1.7325,1.7325,1.7325,1.7025,1.7049,1.7077,1.7143,1.7191,1.7234,1.7284,1.7311,1.7337,1.7351,1.7375,1.7375,1.7377,1.7361,1.7361,1.7361,1.7361,1.7361,1.7361,1.7034,1.7066,1.7105,1.7162,1.7193,1.7237,1.7293,1.7324,1.7365,1.7381,1.7381,1.7396,1.7355,1.7343,1.7363,1.7363,1.7363,1.7362,1.7362,1.7085,1.7077,1.7137,1.7168,1.7235,1.7279,1.7313,1.7373,1.7403,1.7425,1.7438,1.7403,1.7411,1.7409,1.7399,1.7433,1.7433,1.7433,1.7433,1.71,1.7106,1.7172,1.722,1.7269,1.7305,1.7369,1.7412,1.7455,1.7474,1.7474,1.7463,1.746,1.747,1.7466,1.7457,1.7505,1.7505,1.7505,1.7131,1.7144,1.7194,1.7236,1.729,1.7335,1.7395,1.7447,1.7494,1.7509,1.749,1.7487,1.7471,1.7464,1.7477,1.7471,1.7455,0,0]},{"header":{"parameterUnit":"m.s-1","parameterCategory":1,"la1":30.2992,"la2":30.254,"lo1":-89.0895,"lo2":-89.0443,"dy":0.0025,"dx":0.0025,"nx":19,"ny":19,"refTime":"2026-03-20T03:00:00:Z","depth":0,"parameterNumber":3,"parameterNumberName":"V-component_of_WINDS"},"data":[0,0,0,3.2435,3.2434,3.2367,3.2367,3.2293,3.2293,0,0,0,0,0,0,0,0,0,0,0,3.2465,3.2465,3.2435,3.2434,3.2367,3.2367,3.2294,3.2293,0,0,0,0,0,0,0,0,0,0,0,3.2466,3.2465,3.2465,3.2434,3.2367,3.2367,3.2294,3.2339,0,0,0,0,0,0,0,0,0,0,3.2401,3.2441,3.2465,3.2465,3.2433,3.2367,3.2366,3.2341,3.2336,3.233,0,3.233,0,3.2311,3.2289,3.2289,0,0,0,3.2425,3.2445,3.2418,3.2465,3.2433,3.2367,3.2395,3.2338,3.2333,3.2324,3.2329,3.2326,3.231,3.2289,3.2288,3.2289,3.2289,0,0,3.2429,3.2459,3.2421,3.2415,3.2429,3.2397,3.2393,3.2335,3.2341,3.2329,3.2324,3.2308,3.2288,3.2288,3.2288,3.2289,0,0,0,3.2445,3.2462,3.2435,3.2418,3.2405,3.2395,3.239,3.2344,3.2333,3.2323,3.2307,3.2288,3.2287,3.2288,3.2288,3.2338,0,0,0,3.2447,3.2471,3.2437,3.2455,3.2407,3.2374,3.2401,3.2337,3.2329,3.2308,3.2288,3.2287,3.2287,3.2288,3.2336,3.2356,0,0,0,3.2466,3.2473,3.2468,3.2457,3.2429,3.2375,3.236,3.2334,3.232,3.2289,3.2287,3.2287,3.2288,3.2334,3.2352,3.2364,0,0,0,3.2494,3.2512,3.2469,3.2482,3.243,3.2407,3.236,3.2341,3.232,3.2288,3.2287,3.2288,3.2333,3.235,3.2362,3.2379,3.2389,0,0,3.2533,3.2518,3.2523,3.2482,3.2475,3.2415,3.2413,3.2365,3.2333,3.2304,3.2304,3.2337,3.2352,3.2364,3.2438,3.2446,0,0,0,3.2545,3.2549,3.2541,3.2524,3.2489,3.2459,3.2408,3.239,3.2364,3.2326,3.2343,3.2352,3.2357,3.2364,3.2371,3.2372,3.2293,3.2293,3.2293,3.2642,3.2602,3.2608,3.256,3.2543,3.2491,3.2472,3.2438,3.2402,3.2407,3.2398,3.2448,3.2457,3.2462,3.2464,3.2404,3.2404,3.2404,3.2404,3.2693,3.2692,3.2645,3.2633,3.259,3.2578,3.2527,3.2502,3.2483,3.2452,3.2454,3.2423,3.2472,3.2472,3.2408,3.2407,3.2407,3.2406,3.2406,3.2751,3.2744,3.2723,3.2693,3.2674,3.2624,3.2608,3.2569,3.2532,3.2534,3.2519,3.2518,3.2511,3.253,3.2531,3.2531,3.2531,3.2531,3.2531,3.2819,3.2794,3.2787,3.2751,3.2734,3.2707,3.2654,3.2635,3.2603,3.2576,3.2575,3.2537,3.2486,3.2473,3.2534,3.2533,3.2533,3.2533,3.2532,3.2884,3.2863,3.2853,3.2837,3.279,3.2773,3.2723,3.2688,3.2667,3.266,3.2621,3.259,3.257,3.2564,3.2553,3.2631,3.2631,3.2631,3.2631,3.2932,3.2919,3.2899,3.2875,3.2847,3.2801,3.2787,3.2745,3.2697,3.268,3.2663,3.2646,3.2642,3.2624,3.2617,3.2606,3.2695,3.2695,3.2695,3.2969,3.2952,3.2949,3.2905,3.2866,3.2832,3.2817,3.2788,3.2729,3.2697,3.2666,3.2663,3.2634,3.2627,3.2594,3.2584,3.2563,0,0]}]]